W4GHW Weather Reports


Display with metric or nautical units.
time (UTC)temp
F
wind
direction
speed
MPH
gust
MPH
rain 1hr
in
rain 24hr
in
rain mn
in
humidity
%
barometer
mb
20260505224004 85 200 4.0 9.0 0.00 0.00 0.00 35 1014.9
20260505223004 85 230 2.0 8.0 0.00 0.00 0.00 35 1015.1
20260505222003 85 247 3.0 10.0 0.00 0.00 0.00 33 1015.1
20260505220004 86 171 2.0 7.0 0.00 0.00 0.00 32 1014.9
20260505215004 86 243 2.0 12.0 0.00 0.00 0.00 31 1015.0
20260505213004 87 187 5.0 10.0 0.00 0.00 0.00 31 1015.1
20260505212004 87 186 3.0 8.0 0.00 0.00 0.00 30 1015.1
20260505211004 87 136 1.0 7.0 0.00 0.00 0.00 33 1015.1
20260505205004 86 136 3.0 10.0 0.00 0.00 0.00 32 1015.2
20260505204004 85 236 4.0 12.0 0.00 0.00 0.00 32 1015.2
20260505203004 85 143 6.0 12.0 0.00 0.00 0.00 31 1015.5
20260505202004 85 118 3.0 12.0 0.00 0.00 0.00 32 1015.4
20260505201004 86 237 3.0 14.0 0.00 0.00 0.00 34 1015.7
20260505195004 85 211 3.0 10.0 0.00 0.00 0.00 36 1015.9
20260505194004 85 204 4.0 10.0 0.00 0.00 0.00 37 1015.9
20260505193004 85 255 2.0 8.0 0.00 0.00 0.00 39 1016.1
20260505191004 85 159 3.0 10.0 0.00 0.00 0.00 39 1016.6
20260505190004 85 232 4.0 10.0 0.00 0.00 0.00 38 1016.7
20260505184004 84 152 3.0 8.0 0.00 0.00 0.00 39 1017.0
20260505183004 83 172 2.0 10.0 0.00 0.00 0.00 39 1017.0
20260505181003 82 227 3.0 13.0 0.00 0.00 0.00 41 1017.0
20260505180004 83 194 4.0 12.0 0.00 0.00 0.00 39 1017.0
20260505175004 83 167 2.0 13.0 0.00 0.00 0.00 41 1016.9
20260505174004 83 187 3.0 14.0 0.00 0.00 0.00 42 1017.2
20260505173004 82 160 5.0 10.0 0.00 0.00 0.00 42 1017.5
20260505172005 81 184 4.0 12.0 0.00 0.00 0.00 42 1017.4
20260505171004 81 213 6.0 12.0 0.00 0.00 0.00 47 1017.5
20260505170005 81 236 3.0 10.0 0.00 0.00 0.00 49 1017.5
20260505165004 80 211 4.0 13.0 0.00 0.00 0.00 51 1017.6
20260505164004 80 215 3.0 13.0 0.00 0.00 0.00 52 1017.6
20260505163005 79 335 3.0 9.0 0.00 0.00 0.00 52 1017.8
20260505153005 78 265 3.0 12.0 0.00 0.00 0.00 56 1017.9
20260505152005 78 157 2.0 12.0 0.00 0.00 0.00 57 1018.0
20260505151004 77 233 3.0 10.0 0.00 0.00 0.00 57 1018.1
20260505124003 67 164 1.0 6.0 0.00 0.00 0.00 72 1017.3
20260505123004 65 162 2.0 7.0 0.00 0.00 0.00 75 1017.3
20260505122003 64 149 3.0 7.0 0.00 0.00 0.00 77 1017.3
20260505121004 62 199 3.0 9.0 0.00 0.00 0.00 79 1017.2
20260505115004 59 136 2.0 5.0 0.00 0.00 0.00 86 1017.0
20260505114004 58 148 2.0 3.0 0.00 0.00 0.00 87 1016.8
20260505112004 57 147 1.0 5.0 0.00 0.00 0.00 87 1016.8
20260505111004 57 148 1.0 3.0 0.00 0.00 0.00 87 1016.8
20260505101004 57 109 1.0 2.0 0.00 0.00 0.00 87 1016.5
20260505100004 57 130 1.0 3.0 0.00 0.00 0.00 86 1016.4
20260505095005 56 118 1.0 2.0 0.00 0.00 0.00 87 1016.4
20260505094005 56 129 1.0 2.0 0.00 0.00 0.00 86 1016.5
20260505093004 57 129 0.0 1.0 0.00 0.00 0.00 85 1016.5
20260505092004 57 129 0.0 0.0 0.00 0.00 0.00 85 1016.8
20260505091004 57 129 0.0 0.0 0.00 0.00 0.00 84 1016.8
20260505090005 57 129 0.0 0.0 0.00 0.00 0.00 84 1016.6
20260505085005 58 129 0.0 0.0 0.00 0.00 0.00 83 1016.5
20260505084004 58 129 0.0 0.0 0.00 0.00 0.00 83 1016.3
20260505082004 58 129 0.0 0.0 0.00 0.00 0.00 81 1016.2
20260505081005 59 129 0.0 1.0 0.00 0.00 0.00 80 1016.1
20260505080005 59 129 0.0 1.0 0.00 0.00 0.00 79 1016.1
20260505075005 60 129 0.0 0.0 0.00 0.00 0.00 78 1016.2
20260505074005 60 129 0.0 2.0 0.00 0.00 0.00 78 1016.4
20260505073004 60 146 0.0 2.0 0.00 0.00 0.00 78 1016.4
20260505072005 61 109 0.0 2.0 0.00 0.00 0.00 77 1016.3
20260505071005 61 182 1.0 3.0 0.00 0.00 0.00 77 1016.3
20260505070005 61 148 2.0 3.0 0.00 0.00 0.00 77 1016.4
20260505065004 61 147 2.0 3.0 0.00 0.00 0.00 77 1016.4
20260505064004 61 134 1.0 3.0 0.00 0.00 0.00 76 1016.4
20260505063005 61 127 2.0 3.0 0.00 0.00 0.00 76 1016.5
20260505061004 61 117 2.0 7.0 0.00 0.00 0.00 75 1016.6
20260505060004 61 136 1.0 3.0 0.00 0.00 0.00 75 1016.8
20260505055005 62 135 1.0 3.0 0.00 0.00 0.00 74 1016.7
20260505054005 62 137 2.0 6.0 0.00 0.00 0.00 73 1016.8
20260505053004 62 149 3.0 9.0 0.00 0.00 0.00 73 1016.8
20260505052005 62 137 3.0 8.0 0.00 0.00 0.00 72 1016.9
20260505051004 62 138 2.0 8.0 0.00 0.00 0.00 70 1017.1
20260505041004 63 130 3.0 12.0 0.00 0.00 0.00 66 1017.2
20260505040005 62 151 3.0 9.0 0.00 0.00 0.00 62 1017.3
20260505035005 62 130 5.0 9.0 0.00 0.00 0.00 62 1017.2
20260505034005 62 151 0.0 2.0 0.00 0.00 0.00 60 1017.0
20260505033005 62 215 0.0 1.0 0.00 0.00 0.00 60 1017.0
20260505032005 63 215 0.0 1.0 0.00 0.00 0.00 59 1017.0
20260505030005 63 215 1.0 2.0 0.00 0.00 0.00 60 1017.0
20260505025005 64 152 0.0 1.0 0.00 0.00 0.00 56 1016.9
20260505024005 64 152 1.0 2.0 0.00 0.00 0.00 56 1016.9
20260505023004 64 240 0.0 1.0 0.00 0.00 0.00 56 1016.9
20260505022004 65 240 0.0 0.0 0.00 0.00 0.00 54 1016.8
20260505021005 66 240 0.0 0.0 0.00 0.00 0.00 52 1016.8
20260505020004 66 240 0.0 1.0 0.00 0.00 0.00 50 1016.7
20260505013004 68 240 0.0 3.0 0.00 0.00 0.00 47 1016.4
20260505012005 69 161 0.0 2.0 0.00 0.00 0.00 45 1016.3
20260505011004 69 161 0.0 1.0 0.00 0.00 0.00 44 1016.3
20260505010005 70 161 0.0 2.0 0.00 0.00 0.00 43 1016.2
20260505005005 71 161 0.0 0.0 0.00 0.00 0.00 40 1016.3
20260505004005 72 161 0.0 0.0 0.00 0.00 0.00 39 1016.3
20260505003004 74 161 0.0 1.0 0.00 0.00 0.00 35 1016.3
20260505002004 75 180 0.0 1.0 0.00 0.00 0.00 33 1016.2
20260505001004 76 180 0.0 2.0 0.00 0.00 0.00 31 1016.2
20260505000004 77 211 1.0 3.0 0.00 0.00 0.00 29 1016.1
20260504235004 78 162 1.0 5.0 0.00 0.00 0.00 28 1016.2
20260504234004 78 221 2.0 5.0 0.00 0.00 0.00 28 1016.2
20260504233004 78 177 1.0 3.0 0.00 0.00 0.00 28 1016.1
20260504232004 79 145 1.0 3.0 0.00 0.00 0.00 27 1016.1
20260504231004 79 213 1.0 6.0 0.00 0.00 0.00 25 1016.1
20260504225004 81 243 2.0 7.0 0.00 0.00 0.00 24 1016.1